Regional Weather Roundup
Issued by NWS Grand Forks, ND

Home | Current Version | Previous Version | Graphics & Text | Print | Product List | Glossary On
Versions: 1 2 3 4 5 6 7 8 9 10 11 12 13 14 15 16 17 18 19 20 21 22 23 24 25 26 27 28 29 30 31 32 33 34 35 36 37 38 39 40 41 42 43 44 45 46 47 48 49 50
000
ASUS43 KFGF 272210
RWRFGF
PRAIRIE TO PINES  WEATHER ROUNDUP
NATIONAL WEATHER SERVICE EASTERN NORTH DAKOTA/GRAND FORKS ND
500 PM CDT TUE JUN 27 2017

 **SATELLITE DATA USED TO AUGMENT SKY COVER AT AUTOMATED STATIONS**
 *****  WEATHER ACROSS EASTERN NORTH DAKOTA  *****

CITY           SKY/WX    TMP DP  RH WIND       PRES   REMARKS
GRAND FORKS    FAIR      80  49  33 S22G30    29.68F
GRAND FRKS AFB FAIR      78  49  35 S21G31    29.68F
DEVILS LAKE    FAIR      79  50  36 S20       29.63F
FARGO          FAIR      77  45  32 S23G31    29.71F
WAHPETON ARPT  FAIR      70  45  40 S16       29.73S
$$

 ***** WEATHER ACROSS CENTRAL AND WESTERN NORTH DAKOTA  *****

CITY           SKY/WX    TMP DP  RH WIND       PRES   REMARKS
BISMARCK       FAIR      90  62  39 SE17G29   29.53F HX  90
MINOT          FAIR      88  56  33 S15       29.53F
JAMESTOWN      FAIR      82  48  30 S25G33    29.64F
MINOT AFB      FAIR      85  56  38 S12       29.52F
GARRISON         N/A     80  58  46 S12       29.54F
WILLISTON      FAIR      89  49  25 NW18      29.55R
DICKINSON      FAIR      85  46  25 SE3       29.52F
HETTINGER      FAIR      90  46  21 W14       29.57R
$$

 *****  OTHER AIRPORT OBSERVATIONS IN OUR AREA  *****

CITY           SKY/WX    TMP DP  RH WIND       PRES   REMARKS
WALHALLA       NOT AVBL
GRAFTON AIRPOR FAIR      79  46  31 S22G30    29.68F
VALLEY CITY AR FAIR      79  48  34 S20G32    29.69S
CANDO          NOT AVBL
CAVALIER APRT  FAIR      81  46  30 S23G29    29.64F
GWINNER        CLOUDY    79  48  34 SE24      29.68F
SHEYENNE NWR     N/A     74  55  51 S14       29.95
ROLLA            N/A     77  55  47 S18G26    29.61S
 ***** THE ABOVE OBSERVATIONS ARE NON NWS ARE NOT QUALITY
       CONTROLLED AND MAY MIS-REPORT RAIN FOR SNOW...
$$

  *****  WEATHER ACROSS NORTHERN MINNESOTA  *****

CITY           SKY/WX    TMP DP  RH WIND       PRES   REMARKS
FLAG ISLAND    FAIR      72  43  35 SE6       29.76S
WARROAD        FAIR      75  48  38 S10       29.76F
ROSEAU         FAIR      77  50  38 S13G21    29.74F
HALLOCK        FAIR      79  46  31 S20       29.67F
THF RVR FALLS  FAIR      76  43  30 S17G26    29.74
BAUDETTE       FAIR      73  48  41 S7        29.78F
WASKISH        FAIR      75  46  35 S8        29.79F
CROOKSTON      FAIR      77  43  29 S22G29    29.71F
STEPHEN NDAWN    N/A     81  41  24 S20         N/A
GREENBUSH NDAW   N/A     79  46  31 S16         N/A
$$
  *****  WEATHER ACROSS CENTRAL AND WEST MINNESOTA  *****

CITY           SKY/WX    TMP DP  RH WIND       PRES   REMARKS
FOSSTON        FAIR      73  45  35 S15       29.78S
BEMIDJI        FAIR      75  45  34 S16G23    29.80S
PARK RAPIDS    FAIR      76  42  29 S15G31    29.79F
ELBOW LAKE     FAIR      71  47  42 E20       29.76S THUNDER
WADENA         FAIR      73  46  38 S20G25    29.79F
DETROIT LAKES  FAIR      73  43  33 S18G28    29.80R
MOORHEAD       FAIR      77  45  31 SE16G29   29.73F
FERGUS FALLS   FAIR      72  45  37 S16       29.75R THUNDER
MORRIS MN      FAIR      75  45  33 S18G25    29.76F
STAPLES        FAIR      73  39  29 S18G26    29.82F
$$
  *****  WEATHER ELSEWHERE ACROSS MINNESOTA  *****

CITY           SKY/WX    TMP DP  RH WIND       PRES   REMARKS
DULUTH         FAIR      72  44  36 SW14G25   29.88F
INTRNTL FALLS  FAIR      72  46  39 S7        29.80F
ELY            NOT AVBL
CLOQUET        FAIR      72  37  28 SW12G18   29.88F
WHEATON        TSTM      72  45  37 SE17G25   29.75F
BRAINERD       FAIR      73  41  31 S20       29.86F
HIBBING        FAIR      72  42  34 S13G22    29.85F
ALEXANDRIA     FAIR      71  43  36 S18G24    29.82F
SAINT CLOUD    FAIR      75  43  31 S16G24    29.86F
MINNEAPOLIS    CLOUDY    77  40  26 S18G24    29.91F
$$

  *****  WEATHER ACROSS SOUTH DAKOTA  *****

CITY           SKY/WX    TMP DP  RH WIND       PRES   REMARKS
SIOUX FALLS    PTSUNNY   79  57  46 S18G31    29.79F
BROOKINGS      FAIR      78  49  35 S23G32    29.77F
WATERTOWN      FAIR      75  49  39 S25G36    29.74F
HURON          FAIR      82  53  36 S22G35    29.66F
SISSETON         N/A     79  49  34 S23G33    29.71F
ABERDEEN       FAIR      83  48  29 S23G32    29.66F
MITCHELL       FAIR      85  55  35 SE22G31   29.69F
PIERRE         FAIR      91  60  35 S26G33    29.55F HX  90
MOBRIDGE       FAIR      89  56  32 S23G33    29.53F
RAPID CITY     FAIR      91  44  19 N12G22    29.61F
$$

  *****  SOME WEATHER IN NEARBY STATES *****

CITY           SKY/WX    TMP DP  RH WIND       PRES   REMARKS
GLASGOW MT     FAIR      83  52  34 NW17G29   29.61S
GREAT FALLS MT FAIR      78  50  37 NE7       29.78R
CHEYENNE WY    FAIR      89  24   9 NW18G35   29.87F
SCOTTSBLUFF NE FAIR      85  51  31 CALM      29.71F
OMAHA NE       FAIR      81  62  52 S24G30    29.87F
DES MOINES IA  PTSUNNY   80  51  36 SE15      29.95F
DAVENPORT IA   NOT AVBL
CHICAGO IL     PTSUNNY   77  44  30 W5        30.05F
EAU CLAIRE WI  FAIR      75  44  33 SW14G21   29.95F
LA CROSSE WI   FAIR      80  46  30 SE13      29.97F
$$

  *****  SOME NATIONAL WEATHER *****

CITY           SKY/WX    TMP DP  RH WIND       PRES   REMARKS
LA GUARDIA NY  PTSUNNY   75  57  53 S10G20    29.91F
RALEIGH NC     PTSUNNY   78  53  41 NW6       30.05S
ATLANTA GA     FAIR      84  53  34 NW10      30.05S
NEW ORLEANS LA CLOUDY    83  61  47 E7        29.99F
OKLAHOMA CITY  FAIR      90  63  40 S14G25    29.93F HX  91
ALBUQUERQUE NM PTSUNNY   90  41  18 S12G20    30.01F
SALT LAKE CITY FAIR      90  31  12 N12       29.92F
LOS ANGELES CA FAIR      74  59  59 W10       29.88F
BOISE ID       FAIR      87  45  23 NW12G17   29.86F
SEATTLE WA     FAIR      66  50  56 SW6       30.03F
$$

*** WEATHER ACROSS MANITOBA...SASKATCHEWAN AND ONTARIO ***
                ***ONTARIO***

CITY           SKY/WX    TMP DP  RH WIND       PRES   REMARKS
GERALDTON      PTSUNNY   70  46  43 W10G18    29.78F
THUNDER BAY    MOSUNNY   75  46  35 SW16G26   29.81F
SIOUX LOOKOUT  MOSUNNY   72  45  37 W13G21    29.77F
TORONTO        PTSUNNY   68  46  45 NW18G25   29.95R
BIG TROUT LK   MOSUNNY   64  45  48 N9        29.70R
PICKLE LAKE    PTSUNNY   75  39  27 W17       29.69F
DRYDEN         PTSUNNY   72  43  35 SW13G21   29.77F
KENORA         CLOUDY    70  46  43 SW13G20   29.77F
$$
                *** MANITOBA***

CITY           SKY/WX    TMP DP  RH WIND       PRES   REMARKS
BRANDON        PTSUNNY   79  59  50 S9G18     29.56S
DAUPHIN        SUNNY     81  57  44 S14       29.51S
ISLAND LAKE    SUNNY     68  45  42 N12G20    29.72S
PILOT MOUND      N/A     72  52  49 S21G28      N/A
THE PAS        PTSUNNY   73  46  38 E20G26    29.56R
THOMPSON       PTSUNNY   63  43  48 NE15G25   29.79S
WINNIPEG       PTSUNNY   77  54  44 S16G26    29.65F
LYNN LAKE      MOSUNNY   64  43  45 E20G30    29.74R
CHURCHILL      MOSUNNY   50  41  71 NE12      29.99F
GILLAM         PTSUNNY   57  41  54 E10G20    29.86F
$$
                ***SASKATCHEWAN***

CITY           SKY/WX    TMP DP  RH WIND       PRES   REMARKS
ESTEVAN        LGT RAIN  77  55  47 SW8       29.54S
KINDERSLEY     MOSUNNY   72  37  28 NW22G32   29.68R
LLOYDMINSTER   PTSUNNY   61  45  55 W21G33    29.65R
PRINCE ALBERT  LGT RAIN  68  59  73 N10       29.50R
REGINA         LGT RAIN  64  61  88 W17G24    29.61R
YORKTON        SUNNY     77  57  50 S8        29.50R
N. BATTLEFORD  SUNNY     73  41  31 NW18G28   29.61
LA RONGE       CLOUDY    64  50  59 NE8       29.54S
SASKATOON      PTSUNNY   73  52  46 NW30G40   29.55R
SWIFT CURRENT  MOSUNNY   72  48  43 N23G30    29.67R
$$
NOTE: THESE ARE AUTOMATED STATIONS WITH LIMITED QUALITY CONTROL
      "FAIR" INDICATES FEW OR NO CLOUDS BELOW 12,000 FEET WITH NO
      SIGNIFICANT WEATHER AND/OR OBSTRUCTIONS TO VISIBILITY.
      SKY/WX - SKY CONDITION AND SIGNIFICANT WEATHER.
      TMP - AIR TEMPERATURE.    DP   - DEWPOINT TEMPERATURE.
      RH  - RELATIVE HUMIDITY.  PRES - PRESSURE.
      HX  - HEAT INDEX.         WCI  - WIND CHILL INDEX.
$



USA.gov is the U.S. government's official web portal to all federal, state and local government web resources and services.